Regional Weather Roundup
Issued by NWS

Home | Current Version | Previous Version | Graphics & Text | Print | Product List | Glossary Off
Versions: 1 2 3 4 5 6 7 8 9 10 11 12 13 14 15 16 17 18 19 20 21 22 23 24 25 26 27 28 29 30 31 32 33 34 35 36 37 38 39 40 41 42 43 44 45 46 47 48 49 50

000
ASUS43 KTOP 280059
RWRKS

WEATHER ROUNDUP FOR KANSAS
NATIONAL WEATHER SERVICE GOODLAND KS
800 PM CDT SUN JUL 27 2014

NOTE:  "FAIR" INDICATES FEW OR NO CLOUDS BELOW 12,000 FEET WITH NO
SIGNIFICANT WEATHER AND/OR OBSTRUCTIONS TO VISIBILITY.

KSZ001>006-013>018-027>032-041>047-280200-
NORTHWEST KANSAS

CITY           SKY/WX    TMP DP  RH WIND       PRES   REMARKS
GOODLAND       SUNNY     84  47  27 SE10      30.26S
HAYS           CLEAR     84  48  28 NE9       30.17R
HILL CITY      CLEAR     86  51  29 NE9       30.18R
RUSSELL        CLEAR     85  50  29 N9        30.14S
$$

KSZ061>065-074>080-084>089-280200-
SOUTHWEST KANSAS

CITY           SKY/WX    TMP DP  RH WIND       PRES   REMARKS
DODGE CITY     CLEAR     85  51  31 E10       30.19S
ELKHART          N/A    N/A N/A N/A MISG        N/A
GARDEN CITY    CLEAR     82  52  35 E9        30.21R
GREAT BEND     CLEAR     84  54  34 NE8       30.14R
LIBERAL        CLEAR     81  55  41 E12       30.23R
PRATT          CLEAR     84  50  30 E7        30.16S
$$

KSZ066>073-081>083-090>101-280200-
SOUTHEAST KANSAS

CITY           SKY/WX    TMP DP  RH WIND       PRES   REMARKS
CHANUTE        PTCLDY    84  54  35 N8        30.06S
COFFEYVILLE    MOCLDY    82  76  81 W6        30.05R
HUTCHINSON     CLEAR     83  65  54 N3        30.12S
MEDICINE LODGE   N/A     85  61  44 CALM      30.12S
NEWTON         CLEAR     84  46  26 N9        30.15S
PARSONS        PTCLDY    83  66  56 NW3       30.07R
WICHITA INTL   PTCLDY    87  51  28 N7        30.09S
WICHITA JABRA  CLEAR     85  54  34 N7        30.10S
WINFIELD       CLEAR     81  72  74 SW5       30.10S
$$

KSZ007>012-019>026-033>040-048>060-102>105-280200-
NORTHEAST KANSAS

CITY           SKY/WX    TMP DP  RH WIND       PRES   REMARKS
CONCORDIA      CLEAR     82  56  40 N8        30.14R
EMPORIA        CLEAR     83  52  34 N10G17    30.09R
LAWRENCE       CLEAR     82  58  43 N10       30.07R
MANHATTAN      CLEAR     84  56  38 N8        30.10R
OLATHE IND     CLEAR     81  58  45 N13       30.08R
OLATHE EXE     CLEAR     82  57  42 N13G21    30.06S
SALINA         CLEAR     87  53  31 NE10      30.12R
TOPEKA BILLARD CLEAR     84  57  39 NW7       30.08S
TOPEKA FORBES  CLEAR     84  55  36 N15       30.08S
$$



USA.gov is the U.S. government's official web portal to all federal, state and local government web resources and services.